Regional Weather Roundup
Issued by NWS

Home | Current Version | Previous Version | Graphics & Text | Print | Product List | Glossary On
Versions: 1 2 3 4 5 6 7 8 9 10 11 12 13 14 15 16 17 18 19 20 21 22 23 24 25 26 27 28 29 30 31 32 33 34 35 36 37 38 39 40 41 42 43 44 45 46 47 48 49 50
208
ASUS43 KLMK 131710
RWRKY
KENTUCKY REGIONAL WEATHER ROUNDUP
NATIONAL WEATHER SERVICE LOUISVILLE KY
1200 PM EST SAT FEB 13 2016

NOTE "FAIR" INDICATES FEW OR NO CLOUDS BELOW 12,000 FEET
WITH NO SIGNIFICANT WEATHER AND/OR OBSTRUCTIONS TO VISIBILITY.

KYZ001>023-026-027-061>063-070>075-131800-
WESTERN AND SOUTH CENTRAL KENTUCKY

CITY           SKY/WX    TMP DP  RH WIND       PRES   REMARKS
PADUCAH        CLOUDY    23   3  42 NE12      30.62S WCI  12
HENDERSON      SUNNY     19   7  58 NW9       30.63S WCI   9
OWENSBORO      SUNNY     20   3  47 N7        30.62F WCI  11
HOPKINSVILLE   SUNNY     23   3  42 NE12      30.59S WCI  12
BOWLING GREEN  SUNNY     25   3  38 N9G17     30.58S WCI  15
GLASGOW        SUNNY     24   7  50 N7        30.54F WCI  15
$$

KYZ024-025-028>034-038-045-046-053-131800-
NORTH CENTRAL KENTUCKY

CITY           SKY/WX    TMP DP  RH WIND       PRES   REMARKS
LOUISVILLE/SDF MOSUNNY   22   0  38 N8        30.59F WCI  12
LOUISVILLE/LOU SUNNY     20   1  43 VRB5      30.59F WCI  13
FORT KNOX      MOSUNNY   20  -1  39 N3        30.55S
$$

KYZ035>037-039>044-047>052-055>060-089>105-131800-
NORTHEAST KENTUCKY

CITY           SKY/WX    TMP DP  RH WIND       PRES   REMARKS
LEXINGTON      MOSUNNY   20   4  50 N9        30.53S WCI   9
COVINGTON      MOSUNNY   15   2  56 CALM      30.54S
FRANKFORT      MOSUNNY   20   1  43 NW12      30.54F WCI   8
$$

KYZ054-064>069-076>088-106>120-131800-
SOUTHEAST KENTUCKY

CITY           SKY/WX    TMP DP  RH WIND       PRES   REMARKS
JACKSON        CLOUDY    18   3  52 VRB7      30.46S WCI   9
LONDON         MOSUNNY   21   4  47 N5G16     30.48S WCI  15
SOMERSET       SUNNY     21   3  45 N7        30.54S WCI  13
MIDDLESBORO    PTSUNNY   24   9  53 N9        30.46S WCI  14
MONTICELLO     SUNNY     23   6  48 N12G18    30.53S WCI  12
$$





USA.gov is the U.S. government's official web portal to all federal, state and local government web resources and services.